Погода в Броценах

Латвия     56°40′48″N   22°34′07″E
темп.,
°C
ветер,
м/с
пор.,
м/с
влажн.,
%
обл.,
%
осадки,
мм/ч
давл.,
гПа
погр.,
м
21 января, пт
пт2123:00−2ссз91889100 2.1 9921522
02:00−1ссз92076100 2.3 9941604
05:00−1ссз91878100 0.0 9961339
08:00−1ссз81683100 0.1 9991057
11:00−1ссз8167975 0.6 10011235
14:00−1ссз9167893 0.6 10031411
17:00−2ссз81681100 0.1 10041304
20:00−3ссз61393100 0.5 10061264
22 января, сб
сб2223:00−3ссз6138789 0.1 1008838
02:00−4ссз61491100 0.3 1010865
05:00−4с51294100 0.4 1013877
08:00−4с5129498 0.8 1016763
11:00−4ссз5109185 0.1 1019685
14:00−3ссз51188100 0.1 1020788
17:00−2с5986100 0.0 1020832
20:00−5ссз3895100 0.1 1022198
23 января, вс
вс2323:00−6сз269791 0.0 1024134
02:00−7сз1298100 0.0 102535
05:00−8зсз119856 0.0 102510
08:00−6з1196100 0.0 102715
11:00−3ююз2291100 0.0 102889
14:00−1юз349684 0.1 1029251
17:00−1ююз369590 0.0 1030307
20:00−1юз389594 0.0 1030280
24 января, пн
пн2423:00−1ююз3893100 0.0 1031256
02:00−2ююз4119429 0.0 1031296
05:00−2ююз514925 0.0 1030349
08:00−3ююз5159213 0.0 1029392
11:00−1ююз61495100 0.0 1028415
14:00+1ююз61596100 0.0 1025557
17:00+1ююз71697100 0.0 1024642
20:00+2юз61395100 0.3 1022873
25 января, вт
вт2523:00+1юз51297100 0.3 1021545
02:00+2зюз41099100 0.4 1020375
05:00+2зюз41098100 0.0 1019415
08:00+1зсз389390 0.1 1019310
11:000сз38905 0.1 1021491
14:000сз48776 0.1 1022968
17:00−2сз4107977 0.0 1023373
20:00−3сз398299 0.0 1024293